Wind_Speed
31 31 32 32 32 33 34 34 35 34 34 33 34 35 35 35 36 37 37 37 37 38 39 40 41 41 42 43 43 44 44 45 46 47 48 49 49 50 51 53 53 53 53 53
30 30 31 32 31 31 33 34 35 35 34 33 34 35 35 35 35 35 36 37 37 37 38 39 39 40 40 41 41 42 42 43 44 45 46 47 47 48 49 51 52 52 53 53
30 29 30 30 29 31 33 33 34 34 33 34 34 35 35 35 35 35 35 35 35 36 37 37 38 39 39 39 39 40 40 41 43 44 44 44 45 45 47 49 50 50 51 53
28 28 29 28 28 29 31 30 31 32 33 34 34 34 34 34 34 35 35 35 36 37 37 37 38 38 38 38 39 39 40 40 42 43 43 43 43 44 45 47 48 49 50 51
26 27 28 27 27 28 29 29 30 31 31 32 32 33 33 34 35 35 35 36 36 37 37 37 36 36 36 37 37 38 39 40 41 41 41 42 42 42 44 45 47 48 49 51
25 27 27 26 27 28 29 29 29 30 31 31 32 32 33 34 34 35 35 35 36 36 36 36 36 36 36 36 36 36 36 37 38 38 38 39 40 40 41 43 44 46 47 49
24 26 26 26 26 28 29 30 30 30 30 31 32 33 34 34 35 35 34 34 35 35 36 36 35 35 35 35 36 36 36 36 36 37 37 37 37 37 38 40 41 42 45 46
24 25 26 26 27 28 29 30 30 31 31 32 33 33 34 34 34 34 34 34 35 35 35 35 34 34 34 34 34 34 34 34 35 36 36 36 36 36 37 37 38 39 41 43
23 24 24 26 27 28 29 30 30 31 31 32 33 33 34 33 33 33 34 34 34 34 34 33 33 33 33 33 32 31 32 32 33 34 33 33 34 35 35 36 37 38 39 40
25 24 25 26 27 28 29 30 30 31 31 31 32 32 32 33 33 33 33 33 33 33 32 32 32 32 32 32 31 30 30 30 31 32 33 33 33 34 34 35 36 36 38 39
26 26 26 27 28 28 29 29 29 29 29 30 31 32 32 32 32 32 32 31 31 30 30 30 30 30 30 30 30 29 29 30 30 31 31 32 32 33 33 34 34 35 36 38
25 26 27 27 28 29 29 29 28 28 28 29 30 31 31 31 31 30 30 30 30 29 29 29 28 28 28 28 29 28 28 29 30 31 31 32 32 33 34 35 35 35 35 36
26 26 27 27 27 28 29 29 28 28 28 28 29 29 29 29 29 29 29 29 29 29 28 27 26 26 27 27 28 28 28 28 29 30 31 32 32 33 34 35 35 35 35 35
26 27 27 27 27 27 28 28 28 28 28 28 28 28 28 27 28 28 28 28 28 27 27 26 26 26 26 27 27 27 28 29 29 30 31 32 33 33 34 34 35 35 34 34
27 27 27 27 27 28 27 27 27 27 27 28 28 28 27 27 27 27 27 26 26 26 26 26 26 27 27 27 27 27 28 29 29 30 30 31 32 32 33 33 34 34 34 33
27 27 27 27 27 28 28 27 26 26 26 26 26 26 26 26 26 26 26 26 26 26 25 25 25 25 25 26 26 26 27 27 28 29 30 30 31 32 32 32 32 32 32 32
26 26 27 27 27 28 28 27 26 25 25 25 25 25 25 25 24 25 25 26 26 25 24 24 24 24 24 24 25 25 26 26 27 28 28 28 29 29 30 30 31 31 32 32
26 26 26 26 27 26 26 26 26 25 24 23 24 24 24 24 24 24 24 24 24 24 24 23 24 24 24 24 24 24 25 25 26 26 26 26 26 26 26 27 28 28 29 30
25 25 25 25 25 25 25 25 25 24 24 23 23 24 24 24 24 24 24 24 24 24 24 24 24 24 24 24 24 24 24 24 24 24 24 25 24 23 23 23 24 25 26 27
24 24 24 23 23 23 24 24 23 23 23 23 23 24 24 24 25 25 24 24 25 24 24 25 25 25 24 24 23 22 22 21 21 21 21 21 21 21 21 21 22 23 24 25
23 23 23 22 22 23 23 23 23 23 23 23 23 24 24 25 25 25 25 25 25 26 26 26 26 25 24 23 22 21 21 20 19 19 19 19 19 19 19 19 20 20 21 21
22 22 22 22 23 23 23 23 23 23 23 23 24 24 25 25 25 26 26 26 26 26 26 26 25 24 23 22 21 20 20 20 19 19 18 18 18 18 18 19 19 19 19 20
22 22 22 23 23 23 23 23 23 23 23 23 24 25 25 26 26 26 26 26 26 25 24 24 23 22 22 21 21 20 20 19 19 19 18 18 18 19 19 19 19 19 19 20
22 22 22 23 23 23 23 23 23 23 23 23 24 24 25 25 26 27 27 26 25 24 24 23 22 22 22 21 21 20 20 20 20 20 19 19 19 20 20 20 20 20 20 20
20 20 21 22 22 22 23 23 23 23 23 23 24 25 25 26 27 27 26 25 25 24 24 23 22 22 22 22 22 21 21 21 21 21 21 21 21 21 21 21 21 21 21 21
20 20 21 21 22 22 22 23 23 23 24 25 26 26 27 27 26 26 26 25 25 24 24 23 23 22 22 22 22 22 22 22 21 21 22 22 22 22 22 22 22 21 21 21
20 20 21 21 22 22 23 23 24 24 25 26 26 26 26 26 26 25 25 25 25 25 24 24 23 23 23 22 22 22 22 21 21 21 22 22 22 22 22 22 23 23 23 23
Wind_Direction
274 273 272 270 269 268 268 269 270 273 273 273 273 275 276 278 278 278 279 280 278 278 277 276 275 273 271 270 269 268 267 266 264 262 259 258 259 257 256 256 254 253 253 252
275 272 271 270 269 268 268 269 271 272 273 273 274 275 276 278 279 279 280 280 279 279 278 278 276 274 273 272 271 269 268 267 264 263 260 259 259 258 257 256 255 253 252 251
276 273 271 270 271 269 270 271 272 273 275 275 276 277 278 278 279 280 282 281 280 279 279 278 277 277 275 272 272 271 270 268 266 263 262 260 259 258 257 256 255 253 252 250
278 274 271 274 274 273 272 272 274 275 275 276 276 277 279 279 279 279 280 281 281 280 280 279 279 278 276 274 273 272 270 268 267 264 262 261 260 258 257 256 254 253 252 251
278 277 275 275 275 275 274 274 275 276 276 276 277 277 279 281 281 282 282 282 281 281 281 280 280 279 277 275 275 274 271 269 267 265 263 261 260 258 258 257 256 253 252 251
277 278 280 279 277 276 277 277 278 277 278 278 279 278 280 282 283 283 284 283 282 282 281 281 281 280 279 276 276 275 272 269 266 265 264 263 261 259 259 258 257 254 252 251
279 278 280 282 280 279 279 281 280 280 280 281 281 282 282 283 283 283 284 284 284 284 283 283 281 280 279 277 276 275 273 269 267 264 264 264 261 260 260 259 258 256 253 250
282 281 281 282 281 280 282 283 283 282 283 283 284 284 284 284 284 284 285 284 284 285 285 284 281 280 280 277 276 275 272 270 268 264 262 263 261 261 260 259 258 256 253 251
281 282 282 281 282 283 284 284 284 283 284 285 285 285 285 286 285 285 286 285 285 286 286 285 284 281 280 277 274 273 271 270 269 266 262 263 262 261 261 259 256 255 253 251
279 280 281 280 282 283 283 284 284 284 286 286 286 286 286 286 285 285 286 287 287 287 286 286 285 283 281 277 273 271 270 269 269 265 263 262 263 263 262 261 257 254 253 251
279 280 281 281 282 282 282 284 284 285 287 287 287 287 287 286 286 286 287 287 287 287 287 287 287 284 282 277 272 272 270 268 267 265 263 263 262 263 263 262 259 256 255 255
281 282 283 285 286 284 283 283 284 286 287 289 289 289 289 289 288 288 288 287 288 289 288 287 286 284 281 278 273 271 270 268 267 266 264 264 262 263 263 263 261 259 258 257
283 283 283 285 287 285 284 283 285 287 288 289 291 291 291 290 290 289 289 289 289 289 289 287 286 285 282 279 276 273 271 269 268 267 266 265 265 264 263 263 263 261 259 259
286 285 285 285 285 286 286 286 286 288 289 290 291 292 292 292 292 292 292 291 290 289 288 286 286 286 284 281 278 276 274 271 270 269 268 266 266 265 264 262 262 262 261 260
285 285 286 287 287 287 287 287 287 288 289 290 291 292 293 293 294 293 293 292 291 290 288 287 286 286 284 283 280 277 275 273 272 271 269 268 267 265 264 263 262 261 260 260
286 285 286 287 288 289 289 288 288 289 290 291 291 292 293 294 294 294 293 293 291 291 289 288 287 287 285 284 282 280 277 274 273 273 271 271 270 267 265 264 262 261 260 259
289 286 286 287 288 290 290 288 289 290 290 291 292 293 294 295 295 295 295 294 293 293 291 290 290 288 286 286 285 283 280 277 275 274 273 273 272 269 266 264 262 260 259 260
290 289 289 290 291 292 292 290 289 289 290 291 292 293 295 296 296 295 295 295 294 293 292 292 292 291 290 288 287 285 284 281 278 275 274 273 272 270 267 264 262 261 261 262
292 291 291 292 292 293 293 293 292 291 289 290 292 293 294 295 295 296 296 295 294 293 293 293 293 292 291 289 288 286 285 282 280 278 275 272 270 268 265 264 263 262 261 261
295 294 294 294 293 295 295 294 292 291 291 290 290 292 294 295 295 296 297 296 295 294 294 294 293 293 292 290 289 288 286 283 281 279 276 271 268 266 265 264 264 263 262 260
297 296 297 297 296 296 297 295 293 292 292 290 290 291 293 295 296 297 298 297 296 295 293 293 292 291 290 288 287 286 286 284 282 281 277 270 266 265 264 263 264 264 262 260
297 297 297 297 297 298 298 296 295 294 293 292 290 291 293 294 296 298 299 298 297 296 295 293 292 290 288 286 285 285 284 282 280 279 276 271 266 264 264 264 265 265 264 263
297 296 296 296 297 298 298 298 297 296 294 294 293 292 293 295 297 299 300 300 299 297 296 295 293 291 288 285 283 282 281 279 278 277 274 271 267 264 264 265 265 265 267 266
299 297 297 298 298 299 299 299 299 298 296 296 296 295 295 297 298 299 300 299 299 298 296 294 292 290 288 285 283 280 278 277 276 274 273 272 270 268 266 265 265 265 266 267
303 302 301 301 300 299 299 300 300 299 298 298 298 298 298 298 299 300 299 297 296 296 295 294 291 289 287 284 282 280 278 276 275 273 272 272 272 270 267 266 265 265 266 267
308 306 305 303 302 301 301 301 301 301 300 300 300 300 300 299 299 299 298 297 296 295 295 293 291 290 288 285 283 281 278 276 274 273 272 272 271 270 268 266 264 264 264 265
310 309 308 306 305 304 303 303 302 302 301 301 300 300 300 300 299 298 297 297 296 295 293 292 291 290 289 286 284 281 278 276 274 273 272 272 271 270 268 267 265 264 264 264
Height
5553 5553 5552 5552 5552 5552 5551 5551 5550 5551 5550 5550 5548 5546 5545 5543 5542 5540 5538 5536 5534 5531 5529 5527 5525 5524 5522 5522 5521 5520 5520 5520 5520 5521 5522 5523 5525 5527 5529 5531 5534 5537 5540 5543
5544 5543 5542 5542 5543 5542 5542 5541 5541 5541 5541 5540 5538 5536 5534 5533 5531 5529 5527 5525 5522 5520 5518 5515 5513 5512 5510 5509 5508 5508 5507 5507 5507 5507 5508 5509 5510 5512 5514 5516 5518 5521 5525 5528
5534 5534 5532 5533 5535 5533 5533 5532 5532 5531 5532 5529 5528 5526 5524 5523 5521 5518 5516 5514 5511 5509 5506 5504 5502 5500 5498 5497 5496 5495 5495 5495 5495 5494 5495 5496 5497 5498 5500 5501 5504 5506 5509 5512
5525 5525 5524 5529 5526 5525 5523 5523 5522 5521 5521 5519 5518 5516 5514 5512 5510 5508 5506 5503 5501 5498 5495 5493 5490 5488 5487 5485 5484 5483 5483 5482 5481 5481 5482 5483 5484 5485 5486 5488 5490 5492 5495 5498
5517 5515 5516 5519 5517 5515 5514 5514 5514 5512 5511 5509 5507 5506 5504 5502 5499 5497 5495 5493 5490 5487 5485 5482 5480 5477 5476 5474 5473 5471 5471 5470 5469 5470 5470 5470 5471 5472 5473 5474 5476 5478 5481 5484
5509 5507 5508 5511 5509 5507 5506 5505 5505 5503 5501 5499 5498 5496 5496 5492 5489 5487 5484 5482 5479 5477 5474 5471 5469 5466 5465 5463 5462 5460 5459 5458 5458 5458 5458 5458 5459 5460 5461 5462 5463 5465 5467 5470
5502 5500 5500 5501 5499 5498 5498 5498 5495 5493 5491 5490 5488 5486 5485 5482 5479 5476 5474 5471 5469 5466 5463 5461 5458 5456 5454 5452 5451 5449 5448 5447 5446 5446 5447 5447 5448 5448 5449 5449 5451 5452 5454 5457
5495 5493 5495 5492 5490 5490 5488 5486 5484 5483 5481 5480 5478 5475 5473 5471 5468 5466 5464 5461 5458 5456 5453 5450 5448 5446 5444 5442 5441 5439 5438 5437 5436 5436 5436 5436 5436 5437 5437 5438 5439 5440 5441 5444
5488 5488 5485 5483 5482 5480 5479 5477 5475 5473 5472 5470 5468 5465 5463 5461 5458 5456 5453 5451 5448 5445 5443 5440 5437 5435 5433 5432 5430 5429 5428 5427 5426 5426 5426 5425 5426 5427 5427 5427 5428 5429 5430 5432
5479 5478 5477 5475 5473 5472 5470 5468 5466 5464 5462 5460 5458 5455 5453 5451 5448 5446 5443 5440 5438 5435 5433 5430 5428 5425 5423 5421 5420 5419 5418 5417 5417 5416 5416 5416 5416 5417 5417 5417 5418 5418 5420 5421
5471 5470 5468 5467 5465 5463 5461 5459 5457 5456 5453 5451 5448 5446 5443 5441 5438 5436 5434 5431 5428 5426 5423 5421 5418 5416 5414 5412 5411 5410 5409 5409 5408 5408 5408 5407 5407 5407 5408 5408 5408 5409 5410 5412
5464 5462 5460 5459 5457 5454 5453 5451 5449 5447 5445 5442 5439 5437 5434 5431 5429 5427 5424 5422 5419 5417 5414 5412 5409 5407 5405 5403 5402 5401 5401 5400 5399 5399 5399 5398 5398 5398 5398 5399 5399 5400 5401 5402
5455 5454 5452 5450 5448 5446 5444 5442 5440 5438 5436 5433 5431 5428 5425 5423 5420 5418 5415 5413 5410 5408 5406 5403 5401 5399 5397 5395 5393 5392 5391 5391 5390 5390 5389 5389 5389 5389 5389 5389 5389 5390 5391 5392
5447 5445 5444 5442 5440 5437 5435 5433 5431 5429 5427 5425 5422 5420 5417 5415 5412 5409 5407 5404 5402 5399 5397 5395 5393 5391 5389 5387 5385 5384 5383 5382 5381 5381 5380 5380 5380 5380 5380 5380 5380 5380 5381 5382
5439 5437 5435 5433 5431 5429 5427 5425 5423 5421 5419 5417 5414 5412 5409 5407 5404 5401 5399 5396 5394 5392 5389 5387 5386 5383 5381 5379 5377 5376 5374 5373 5372 5372 5371 5370 5370 5370 5370 5370 5371 5371 5372 5373
5431 5429 5427 5425 5423 5421 5418 5416 5415 5413 5411 5408 5406 5404 5401 5399 5397 5394 5391 5389 5387 5384 5382 5380 5378 5376 5373 5371 5369 5367 5366 5364 5363 5363 5362 5361 5360 5360 5360 5360 5361 5362 5363 5364
5423 5421 5419 5417 5415 5413 5410 5408 5406 5404 5402 5400 5398 5396 5394 5392 5389 5387 5384 5381 5379 5377 5374 5372 5370 5368 5366 5363 5361 5359 5357 5356 5355 5354 5353 5352 5351 5350 5350 5351 5352 5353 5354 5354
5415 5413 5411 5409 5407 5405 5403 5401 5399 5397 5395 5393 5391 5389 5386 5384 5382 5380 5377 5374 5372 5370 5367 5365 5363 5361 5358 5356 5354 5352 5350 5348 5346 5345 5344 5343 5342 5342 5342 5342 5343 5344 5345 5345
5407 5405 5403 5401 5399 5397 5395 5393 5391 5389 5387 5385 5383 5381 5379 5377 5375 5373 5370 5368 5365 5363 5360 5358 5356 5353 5351 5348 5346 5344 5342 5340 5338 5337 5335 5334 5334 5334 5334 5334 5335 5336 5336 5337
5400 5398 5396 5394 5392 5390 5387 5385 5383 5381 5379 5377 5376 5374 5372 5370 5368 5365 5363 5360 5358 5356 5353 5351 5348 5346 5343 5341 5339 5337 5335 5333 5331 5330 5328 5327 5327 5327 5327 5327 5327 5328 5328 5329
5393 5391 5389 5387 5385 5383 5380 5378 5376 5374 5372 5370 5369 5367 5365 5363 5360 5358 5356 5353 5350 5348 5345 5343 5340 5338 5336 5334 5332 5330 5328 5326 5325 5324 5322 5321 5321 5321 5321 5321 5321 5321 5321 5322
5386 5384 5382 5380 5378 5376 5373 5371 5369 5367 5365 5363 5361 5359 5357 5355 5353 5350 5348 5345 5343 5340 5337 5335 5332 5330 5328 5326 5325 5323 5322 5320 5319 5318 5316 5316 5315 5315 5315 5315 5315 5315 5315 5315
5379 5377 5375 5373 5371 5369 5366 5364 5362 5359 5357 5355 5353 5351 5349 5347 5345 5343 5340 5337 5334 5332 5329 5327 5324 5322 5321 5319 5318 5316 5315 5314 5313 5311 5311 5310 5309 5309 5309 5309 5308 5308 5308 5308
5372 5370 5368 5366 5364 5362 5359 5357 5355 5352 5349 5347 5345 5343 5341 5339 5337 5334 5332 5329 5326 5324 5321 5319 5317 5315 5313 5312 5310 5309 5308 5307 5306 5305 5304 5304 5303 5303 5302 5302 5302 5301 5301 5301
5365 5363 5361 5359 5357 5355 5352 5350 5347 5345 5342 5340 5338 5335 5333 5331 5328 5326 5323 5321 5318 5316 5314 5311 5309 5308 5306 5304 5303 5302 5300 5299 5299 5298 5297 5297 5296 5295 5295 5295 5294 5294 5294 5294
5360 5357 5355 5352 5350 5348 5345 5343 5340 5338 5336 5333 5330 5328 5325 5322 5320 5317 5315 5312 5310 5308 5306 5304 5302 5300 5298 5296 5295 5294 5293 5292 5291 5290 5289 5289 5288 5288 5287 5287 5287 5286 5286 5286
5354 5351 5349 5346 5343 5341 5338 5336 5333 5331 5328 5325 5322 5320 5317 5314 5312 5309 5307 5304 5302 5300 5298 5296 5294 5292 5290 5288 5287 5286 5285 5284 5283 5282 5281 5281 5280 5279 5279 5279 5278 5278 5278 5278